Regional Weather Roundup
Issued by NWS

Home | Current Version | Previous Version | Text Only | Print | Product List | Glossary Off
Versions: 1 2 3 4 5 6 7 8 9 10 11 12 13 14 15 16 17 18 19 20 21 22 23 24 25 26 27 28 29 30 31 32 33 34 35 36 37 38 39 40 41 42 43 44 45 46 47 48 49 50

000
ASUS43 KMKX 290100
RWRWI

WISCONSIN REGIONAL WEATHER ROUNDUP
NATIONAL WEATHER SERVICE MILWAUKEE/SULLIVAN WI
800 PM CDT WED SEP 28 2016

NOTE: "FAIR" INDICATES FEW OR NO CLOUDS BELOW 12,000 FEET WITH NO
SIGNIFICANT WEATHER AND/OR OBSTRUCTIONS TO VISIBILITY.

WIZ001-002-006>008-014>016-023>028-290200-
NORTHWEST WISCONSIN

CITY           SKY/WX    TMP DP  RH WIND       PRES   REMARKS
SUPERIOR ARPT  CLOUDY    54  50  87 NE5       30.35R
ASHLAND        CLOUDY    54  51  90 NE6       30.35R
HAYWARD        CLOUDY    54  48  80 N12       30.34R
SIREN          CLOUDY    56  48  75 NE3       30.34R
CUMBERLAND     CLOUDY    54  46  76 N9        30.31R
RICE LAKE      CLOUDY    56  48  74 N13       30.32R
CHETEK         NOT AVBL
LADYSMITH      MOCLDY    54  51  92 N12       30.30S
EAU CLAIRE     NOT AVBL
MENOMONIE      CLOUDY    59  50  72 N13       30.28R
NEW RICHMOND   CLOUDY    56  48  75 N8        30.31R
OSCEOLA        CLOUDY    57  49  74 N5        30.35R
$$

WIZ003>005-009-010-017-018-290200-
NORTH CENTRAL WISCONSIN

CITY           SKY/WX    TMP DP  RH WIND       PRES   REMARKS
MANITOWISH WTR NOT AVBL
ARBOR VITAE    CLEAR     53  51  94 CALM      30.28R
WOODRUFF       CLEAR     53  51  94 CALM      30.28R
RHINELANDER    CLEAR     53  52  96 N3        30.29R
EAGLE RIVER    MOCLDY    52  51  97 CALM      30.28R
LAND O LAKES   CLOUDY    53  50  90 N9        30.31R
PHILLIPS       CLOUDY    54  53  96 N8        30.28R
TOMAHAWK       CLEAR     54  50  86 NE5       30.27R
MEDFORD        CLEAR     51  50  98 N5        30.25R
MERRILL        MOCLDY    55  51  86 NE8       30.25R
$$

WIZ029-030-035-036-043>047-290200-
CENTRAL WISCONSIN

CITY           SKY/WX    TMP DP  RH WIND       PRES   REMARKS
WAUSAU         CLEAR     53  48  83 N3        30.24R
MOSINEE        CLEAR     54  48  82 N6        30.25R
MARSHFIELD     CLEAR     56  47  71 NE5       30.23R
STEVENS POINT  CLEAR     52  47  82 CALM      30.23R
WAUPACA        CLEAR     56  50  80 CALM      30.22R
WAUTOMA        CLEAR     54  50  86 NE5       30.22R
WISC RAPIDS    CLEAR     52  49  89 NE6       30.24R
CAMP DOUGLAS   CLEAR     48  47  96 W2        30.22R
$$

WIZ011>013-019>022-031-037>040-048>050-290200-
NORTHEAST WISCONSIN

CITY           SKY/WX    TMP DP  RH WIND       PRES   REMARKS
ANTIGO         CLEAR     49  48  93 CALM      30.25R
SHAWANO        MOCLDY    56  50  80 N5        30.22R
OCONTO         NOT AVBL
STURGEON BAY   CLEAR     56  53  90 N8        30.22R
GREEN BAY      CLEAR     57  55  93 N12       30.21R
MANITOWOC      NOT AVBL
APPLETON       PTCLDY    54  48  82 N9        30.19R
CLINTONVILLE   CLEAR     52  46  82 CALM      30.22R
OSHKOSH        CLEAR     59  53  80 N13       30.19R
$$

WIZ032>034-041-042-053>061-290200-
SOUTHWEST WISCONSIN

CITY           SKY/WX    TMP DP  RH WIND       PRES   REMARKS
LA CROSSE      PTCLDY    58  51  78 N5        30.22R
SPARTA         MOCLDY    56  54  93 CALM      30.23R
VIROQUA        MOCLDY    54  50  86 CALM      30.21S
BOSCOBEL       CLEAR     55  51  86 NE3       30.20R
PRAIRIE DU CHI MOCLDY    59  51  77 NW5       30.19R
PLATTEVILLE    CLEAR     56  52  87 N9        30.18R
$$

WIZ056-057-062-063-064-067-068-290200-
SOUTH CENTRAL WISCONSIN

CITY           SKY/WX    TMP DP  RH WIND       PRES   REMARKS
REEDSBURG      NOT AVBL
BARABOO/DELLS  CLEAR     55  48  79 CALM      30.19R
LONE ROCK      NOT AVBL
MINERAL POINT  MOCLDY    55  52  88 N7        30.18R
MADISON        CLEAR     54  50  86 N7        30.18R
MIDDLETON      CLEAR     55  51  86 N7        30.18R
WATERTOWN      CLEAR     55  49  80 N6        30.15R
MONROE         CLEAR     54  50  87 N10       30.15R
JANESVILLE     PTCLDY    59  48  67 N8        30.13R
$$

WIZ051-052-058>065-066-070>072-290200-
SOUTHEAST WISCONSIN

CITY           SKY/WX    TMP DP  RH WIND       PRES   REMARKS
MILWAUKEE      MOCLDY    61  51  70 N18G29    30.11R
WAUKESHA       PTCLDY    55  48  76 N9        30.15R
MILWAUKEE/TIMM MOCLDY    57  48  72 N12       30.14R
RACINE         LGT RAIN  58  51  78 N21G29    30.12S
BURLINGTON     PTCLDY    54  46  73 N7        30.12S
KENOSHA        LGT RAIN  55  52  89 CALM      30.12R
FOND DU LAC    CLEAR     58  49  72 NE13      30.19R
SHEBOYGAN      CLEAR     57  51  80 N10       30.16R
WEST BEND      PTCLDY    54  48  82 N7        30.15R
JUNEAU         CLEAR     56  47  73 N8        30.18R
$$

LSZ147-162-290200-
LAKE SUPERIOR

STATION/POSITION TIME  TEMP    WIND        PRES    WAVE
                       AIR SEA DIR/SP/G            HT/PER
                 (UTC) (F)     (DEG/KT/KT) (MB)    (FT/S)
W MID LAKE BUOY  2350   56 54   60/  8/  8 1026.6R   2/ 6
DEVILS ISLAND    0000   54      70/  6/  7 1027.5R
SAXON HARBOR     0000   56      30/ 10/ 14 1026.4
$$

LMZ867-665-643>646-290200-
LAKE MICHIGAN

STATION/POSITION TIME  TEMP    WIND        PRES    WAVE
                       AIR SEA DIR/SP/G            HT/PER
                 (UTC) (F)     (DEG/KT/KT) (MB)    (FT/S)
CHAMBERS ISLAND  0000   63      30/ 13/ 15 1022.0R
S GREEN BAY BUOY 2300   62 62   50/ 17/ 19 1020.8
N MID LAKE BUOY  2350   63 66   40/ 17/ 19 1021.7R   3/ 4
NORTHPORT PIER   0000   62      30/  7/ 10 1022.7R
SISTER BAY       0008   59      30/  5/  7   N/A
KEWAUNEE LAKESHO 0000   58     360/  7/ 12 1021.2R
SHEBOYGAN LAKESH 0000   60      10/ 20/ 21 1020.4R
PORT WASHINGTON  0040   60     360/  6/ 15 1021.0R
ATWATER BUOY     0000   57 54  360/ 17/ 21 1019.1R
MILWAUKEE LAKESH 0010   60     340/ 18/ 23   N/A
S MID LAKE BUOY  2350   64 69   50/ 23/ 29 1016.4R   5/ 5
KENOSHA   LAKESH 0000   53      10/ 24/ 33 1019.0R
$$

TC  - TEMPERATURE IN CELSIUS
VSB - VISIBILITY IN STATUTE MILES
WCI - WIND CHILL INDEX
HX  - HEAT INDEX





USA.gov is the U.S. government's official web portal to all federal, state and local government web resources and services.